Location: ??????
(38.0677°N, 22.9870°E)
Time: 12:01:05
(UTC+00:00)

Cosmos 1825 - Pass Details

Date: 23 May 2024
Orbit: 439 x 443 km, 82.5° (Epoch: 18 June)

Event Time Altitude Azimuth Distance (km) Brightness Sun altitude
Exits shadow 02:35:16 - 242° (WSW) 1,637 4.1 -7.0°
Maximum altitude 02:37:42 16° 285° (WNW) 1,256 3.8 -6.6°
Drops below altitude 10° 02:39:52 10° 325° (NW) 1,571 4.6 -6.2°
Sets 02:42:34 0° 348° (NNW) 2,450 5.9 -5.8°
